OBJECT J, 64884

Orbit data source: Space-Track

You're viewing an Uncataloged Satellite

Recently launched and/or uncataloged satellites may have evolving metadata. Metadata may include but not limited to: Owner, Maufacturer, Bus, Motor, and Mission.

OBJECT J, 64884 is a satellite in SSO that was launched on Fri, 25 Jul 2025 UTC via a SOYUZ-2-1B launch vehicle from the Vostochny Cosmodrome (VOSTO). Unknown objects in Earth's orbit typically refer to objects detected orbiting the Earth but have not yet been identified or cataloged. These objects could be anything from previously untracked satellites, spent rocket stages, debris from satellite collisions, or even natural meteoroids temporarily captured by Earth's gravity.

Loading next visibility...
Identifier
64884, 2025-155J
Orbit
SSO
Country
Flag of TBDTBD
Related business
None
Manufacturer
Unknown
Mission
Operational Commercial Technology
Bus & Motor
Unknown
Mass
Unknown
Launch date (UTC)
2025-07-25 (9 months ago)
Launch vehicle
SOYUZ-2-1B
Launch site
Vostochny Cosmodrome (VOSTO)
Object type
Unknown
Shape & HBR
Box, 1.1 m
Radar Cross Section
0.035 m², Small (<0.1 m²)

Expand to show TLE details & history
Last TLE update: 11 hours ago

TLE from 11 hours ago
0 OBJECT J
1 64884U 25155J   26120.91374655  .00012521  00000-0  45091-3 0  9992
2 64884  97.4538  89.3038 0006819 358.2529   1.8686 15.28694972 73537
Epoch: 2026-04-30T21:55Z
TLE epoch observation values (Epoch: 2026-04-30T21:55:47.701Z)
Latitude
-0.00002°
Longitude
-98.49848°
Altitude
478.138 km
Speed
7.629 km/s
True Right ascension
05h 57m 12s
True Declination
0° 00' 00"
Sunlit
Object was in daylight at epoch
Visualization orbit readout
Latitude
Unknown
Longitude
Unknown
Altitude
Unknown
Speed
Unknown
Apparent Right ascension
Unknown
Apparent Declination
Unknown
Sunlit
N/A
Visualization observer readout
Local Sidereal Time
16:52:25
Azimuth
Unknown
Elevation
Unknown
Doppler factor
Unknown
Orbital elements
Apogee altitude
481.343 km
Perigee altitude
471.995 km
Semi-major axis
6,854.806 km
Eccentricity
0.00068
Inclination
97.4538°
RAAN
89.3038°
Arg. of periapsis
358.2529°
True anomaly
1.87115°
Mean anomaly
1.8686°
Eccentric anomaly
1.86987°
Mean motion
3.82429 °/min
Orbital period
94.14 mins
BSTAR
0.00045091
Loading maneuver chart data...
Computing Atmospheric mass density...
Loading historical data...
Loading historical data...
Loading historical data...
Loading historical data...
Loading historical data...
Loading historical data...
Loading historical data...

Documentation

Showing up to 5 results
|